Regional Weather Roundup
Issued by NWS Grand Forks, ND

Home | Current Version | Previous Version | Graphics & Text | Print | Product List | Glossary On
Versions: 1 2 3 4 5 6 7 8 9 10 11 12 13 14 15 16 17 18 19 20 21 22 23 24 25 26 27 28 29 30 31 32 33 34 35 36 37 38 39 40 41 42 43 44 45 46 47 48 49 50
166
ASUS43 KFGF 280331
RWRFGF
PRAIRIE TO PINES  WEATHER ROUNDUP
NATIONAL WEATHER SERVICE EASTERN NORTH DAKOTA/GRAND FORKS ND
900 PM CST MON FEB 27 2017

 **SATELLITE DATA USED TO AUGMENT SKY COVER AT AUTOMATED STATIONS**
 *****  WEATHER ACROSS EASTERN NORTH DAKOTA  *****

CITY           SKY/WX    TMP DP  RH WIND       PRES   REMARKS
GRAND FORKS    CLOUDY    18  10  71 N16       29.93R WCI   3
GRAND FRKS AFB FLURRIES  16  10  79 N14       29.93R WCI   1
DEVILS LAKE    FLURRIES  13  10  88 E8        29.90R WCI   2
FARGO          FAIR      27  19  72 N17       29.85R WCI  14
WAHPETON ARPT  CLOUDY    32  27  80 N13       29.81R WCI  22
$$

 ***** WEATHER ACROSS CENTRAL AND WESTERN NORTH DAKOTA  *****

CITY           SKY/WX    TMP DP  RH WIND       PRES   REMARKS
BISMARCK       CLOUDY    21  16  81 NE8       29.85R WCI  11
MINOT          FAIR       2  -2  83 N7        29.89R WCI -11
JAMESTOWN      CLOUDY    22  19  89 NE13      29.84R WCI  10
MINOT AFB      CLEAR     -1  -5  84 N3        29.89S
GARRISON         N/A     -3  -6  87 N7        29.85F WCI -16
WILLISTON      FAIR       7   3  84 CALM      29.85R
DICKINSON      CLOUDY    14  11  87 NE7       29.77R WCI   4
HETTINGER      CLOUDY    19  15  84 NE16      29.77R WCI   4
$$

 *****  OTHER AIRPORT OBSERVATIONS IN OUR AREA  *****

CITY           SKY/WX    TMP DP  RH WIND       PRES   REMARKS
WALHALLA       NOT AVBL
GRAFTON AIRPOR FLURRIES  14  10  85 N14       29.98R WCI  -1
VALLEY CITY AR CLOUDY    21  21 100 N10       29.88R WCI  10
CANDO          NOT AVBL
CAVALIER APRT    N/A     14   9  79 N7        29.98R WCI   4
GWINNER        FAIR      28  27  93 N18       29.83R WCI  16
SHEYENNE NWR     N/A     26  20  79 NE14      29.95S WCI  14
ROLLA          CLOUDY     7   3  85 N7        29.91R WCI  -5
 ***** THE ABOVE OBSERVATIONS ARE NON NWS ARE NOT QUALITY
       CONTROLLED AND MAY MIS-REPORT RAIN FOR SNOW...
$$

  *****  WEATHER ACROSS NORTHERN MINNESOTA  *****

CITY           SKY/WX    TMP DP  RH WIND       PRES   REMARKS
FLAG ISLAND    CLOUDY    18  14  86 N12       29.93S FOG     WCI   5
WARROAD        LGT SNOW  19  16  86 N8        29.93R WCI   9
ROSEAU         LGT SNOW  19  16  86 N9        29.93R WCI   9
HALLOCK        FAIR      16  10  79 N10       29.95S WCI   3
THF RVR FALLS  FLURRIES  21  16  81 N13       29.89  WCI   9
BAUDETTE       CLOUDY    21  16  81 N7        29.89S WCI  12
WASKISH        CLOUDY    27  14  59 N6        29.88R WCI  20
CROOKSTON      CLOUDY    21  19  93 N12       29.91S WCI   9
STEPHEN NDAWN    N/A     16  12  86 N10         N/A  WCI   3
GREENBUSH NDAW   N/A     16  16 100 N7          N/A  WCI   6
$$
  *****  WEATHER ACROSS CENTRAL AND WEST MINNESOTA  *****

CITY           SKY/WX    TMP DP  RH WIND       PRES   REMARKS
FOSSTON        CLOUDY    21  16  79 N8        29.85S WCI  12
BEMIDJI        CLOUDY    26  15  63 N7        29.84R WCI  18
PARK RAPIDS    CLOUDY    31  22  69 NE5       29.79S
ELBOW LAKE     CLOUDY    33  30  88 S7        29.79R
WADENA         MOCLDY    28  23  80 SE5       29.78R WCI  23
DETROIT LAKES  FAIR      32  27  80 NE3       29.81R
MOORHEAD       FAIR      27  19  74 N16       29.85R WCI  14
FERGUS FALLS   MOCLDY    32  27  80 N3        29.83R
MORRIS MN      CLOUDY    34  28  80 CALM      29.79R
STAPLES        CLOUDY    30  23  74 NE3       29.79R
$$
  *****  WEATHER ELSEWHERE ACROSS MINNESOTA  *****

CITY           SKY/WX    TMP DP  RH WIND       PRES   REMARKS
DULUTH         MOCLDY    27  25  92 E6        29.86F WCI  20
INTRNTL FALLS  CLOUDY    25  10  53 N3        29.89R
ELY            CLOUDY    28  21  74 SE6       29.87R WCI  22
CLOQUET        MOCLDY    27  23  86 CALM      29.87R
WHEATON        MOCLDY    32  28  86 NW9       29.81R WCI  24
BRAINERD       CLOUDY    30  25  81 SE3       29.81S
HIBBING        CLOUDY    28  22  78 SE10      29.85R WCI  19
ALEXANDRIA     CLOUDY    36  28  73 S10       29.80R
SAINT CLOUD    CLOUDY    36  24  62 S10       29.83R
MINNEAPOLIS    CLOUDY    36  25  64 SE7       29.88S
$$

  *****  WEATHER ACROSS SOUTH DAKOTA  *****

CITY           SKY/WX    TMP DP  RH WIND       PRES   REMARKS
SIOUX FALLS    CLOUDY    37  32  82 E7        29.75F
BROOKINGS      MOCLDY    37  28  70 SE13      29.74S
WATERTOWN      FAIR      33  26  75 SE7       29.74S
HURON          FAIR      32  27  81 SE7       29.72S
SISSETON         N/A     32  30  92 N12       29.78R WCI  23
ABERDEEN       LGT SNOW  30  27  88 N13       29.79R FOG     WCI  20
MITCHELL       FAIR      34  29  82 SE9       29.71F
PIERRE         CLOUDY    35  29  78 NE9       29.71R
MOBRIDGE       FAIR      28  22  78 NE7       29.74R WCI  21
RAPID CITY     FAIR      28  18  66 N7        29.65S WCI  21
$$

  *****  SOME WEATHER IN NEARBY STATES *****

CITY           SKY/WX    TMP DP  RH WIND       PRES   REMARKS
GLASGOW MT     CLOUDY    15   9  76 E12       29.76F WCI   2
GREAT FALLS MT FAIR      16  10  77 S3        29.57R
CHEYENNE WY    LGT SNOW  27  18  69 NW20G28   29.65R WCI  13
SCOTTSBLUFF NE FAIR      30  25  81 W6        29.66R WCI  24
OMAHA NE       MOCLDY    45  30  55 SE7       29.73F
DES MOINES IA  CLOUDY    52  29  41 E9        29.82S
DAVENPORT IA   LGT RAIN  48  34  58 E12       29.94F
CHICAGO IL     CLOUDY    45  34  65 SE10      30.04F
EAU CLAIRE WI  MOCLDY    38  23  55 SE9       29.92S
LA CROSSE WI   MOCLDY    42  32  67 E8        29.93S
$$

  *****  SOME NATIONAL WEATHER *****

CITY           SKY/WX    TMP DP  RH WIND       PRES   REMARKS
LA GUARDIA NY  FAIR      50  30  46 SW6       30.40R
RALEIGH NC     CLOUDY    57  37  47 SE5       30.36S
ATLANTA GA     MOCLDY    50  48  93 E7        30.26S
NEW ORLEANS LA MOCLDY    71  69  93 SE12      30.13R
OKLAHOMA CITY  MOCLDY    60  59  96 S15       29.81R FOG
ALBUQUERQUE NM MOCLDY    50  31  48 W12       29.88R
SALT LAKE CITY MOCLDY    32  25  75 SE5       29.81R
LOS ANGELES CA MOCLDY    54  48  80 W13       29.84S
BOISE ID       FAIR      30  25  81 SE8       29.78F WCI  22
SEATTLE WA     LGT RAIN  35  34  96 SE6       29.74R
$$

*** WEATHER ACROSS MANITOBA...SASKATCHEWAN AND ONTARIO ***
                ***ONTARIO***

CITY           SKY/WX    TMP DP  RH WIND       PRES   REMARKS
GERALDTON      MOCLDY    16   9  73 S5        29.94R WCI   9
THUNDER BAY    CLOUDY    23  19  86 NE2       29.96S
SIOUX LOOKOUT  PTCLDY    19  10  68 NW8       29.89R WCI   9
TORONTO        PTCLDY    41  21  45 SE3       30.25R
BIG TROUT LK   CLEAR     -8 -13  77 W3        29.92R
PICKLE LAKE    NOT AVBL
DRYDEN         PTCLDY    18  12  79 W5        29.89R WCI  11
KENORA         FLURRIES  14   7  73 N7        29.92R WCI   4
$$
                *** MANITOBA***

CITY           SKY/WX    TMP DP  RH WIND       PRES   REMARKS
BRANDON        PTCLDY    -2  -9  71 NW6       29.95R WCI -14
DAUPHIN        CLEAR      5  -2  72 SW8       29.96R WCI  -8
ISLAND LAKE    CLEAR    -11 -17  77 SE2       29.95R
PILOT MOUND      N/A      9   5  85 E3          N/A
THE PAS        FLURRIES   3  -2  78 SE5       29.90R WCI  -6
THOMPSON       CRYSTALS -24 -31  69 CALM      29.95R
WINNIPEG       PTCLDY     9   3  78 NE5       29.99R WCI   0
LYNN LAKE      CLEAR    -20 -26  76 W3        29.88R
CHURCHILL      CRYSTALS -22 -29  69 NW14      29.95R WCI -47
GILLAM         CLEAR    -22 -31  63 W8        29.96R WCI -41
$$
                ***SASKATCHEWAN***

CITY           SKY/WX    TMP DP  RH WIND       PRES   REMARKS
ESTEVAN        CLEAR      1  -2  85 E7        29.87S WCI -11
KINDERSLEY     PTCLDY    10   1  67 E8        29.71S WCI  -1
LLOYDMINSTER   PTCLDY    10   3  72 SW7       29.69S WCI   0
PRINCE ALBERT  CLEAR      9   1  72 W2        29.79R
REGINA         CLEAR      5  -2  72 SE13      29.84R WCI -12
YORKTON        CLEAR      3  -4  72 S7        29.89R WCI  -9
N. BATTLEFORD  MOCLDY    12   3  67 S6        29.77R WCI   3
LA RONGE       CLEAR    -15 -18  84 N2        29.85R
SASKATOON      MOCLDY    12   0  57 S3        29.80R
SWIFT CURRENT  CLOUDY    12   7  79 SE12      29.69S WCI  -2
$$
NOTE: THESE ARE AUTOMATED STATIONS WITH LIMITED QUALITY CONTROL
      "FAIR" INDICATES FEW OR NO CLOUDS BELOW 12,000 FEET WITH NO
      SIGNIFICANT WEATHER AND/OR OBSTRUCTIONS TO VISIBILITY.
      SKY/WX - SKY CONDITION AND SIGNIFICANT WEATHER.
      TMP - AIR TEMPERATURE.    DP   - DEWPOINT TEMPERATURE.
      RH  - RELATIVE HUMIDITY.  PRES - PRESSURE.
      HX  - HEAT INDEX.         WCI  - WIND CHILL INDEX.
$




USA.gov is the U.S. government's official web portal to all federal, state and local government web resources and services.